CW9792 Weather Reports


Display with metric or nautical units.
time (UTC)temp
F
wind
direction
speed
MPH
gust
MPH
rain 1hr
in
rain 24hr
in
rain mn
in
humidity
%
barometer
mb
20260509062546 61 208 0.0 0.0 0.00 0.00 0.00 43 1008.8
20260509062045 61 238 0.0 0.0 0.00 0.00 0.00 42 1008.9
20260509061553 61 211 0.0 0.0 0.00 0.00 0.00 42 1009.0
20260509061044 61 208 0.0 0.0 0.00 0.00 0.00 42 1009.0
20260509060545 61 220 0.0 0.0 0.00 0.00 0.00 42 1009.0
20260509060045 61 207 0.0 0.0 0.00 0.00 0.00 42 1009.0
20260509055544 61 202 0.0 0.0 0.00 0.00 0.00 42 1009.0
20260509055043 61 188 0.0 0.0 0.00 0.00 0.00 43 1009.0
20260509054558 61 194 0.0 0.0 0.00 0.00 0.00 42 1009.1
20260509054042 61 186 0.0 0.0 0.00 0.00 0.00 41 1009.1
20260509053542 62 183 0.0 0.0 0.00 0.00 0.00 41 1009.1
20260509053044 62 189 0.0 0.0 0.00 0.00 0.00 40 1009.2
20260509052541 62 213 0.0 0.0 0.00 0.00 0.00 40 1009.1
20260509052042 62 205 0.0 0.0 0.00 0.00 0.00 40 1009.1
20260509051543 61 200 0.0 0.0 0.00 0.00 0.00 40 1009.1
20260509051044 61 185 0.0 0.0 0.00 0.00 0.00 41 1009.0
20260509050541 61 189 0.0 0.0 0.00 0.00 0.00 41 1009.0
20260509050051 61 178 0.0 0.0 0.00 0.00 0.00 42 1009.0
20260509045540 61 180 0.0 0.0 0.00 0.00 0.00 42 1009.1
20260509045041 61 180 0.0 0.0 0.00 0.00 0.00 41 1009.0
20260509044540 61 180 0.0 0.0 0.00 0.00 0.00 41 1008.9
20260509044039 62 179 0.0 0.0 0.00 0.00 0.00 41 1008.9
20260509043541 62 178 0.0 0.0 0.00 0.00 0.00 41 1009.1
20260509043045 62 190 0.0 0.0 0.00 0.00 0.00 41 1009.0
20260509042537 61 194 0.0 0.0 0.00 0.00 0.00 41 1009.0
20260509042038 61 191 0.0 0.0 0.00 0.00 0.00 41 1009.1
20260509041537 61 191 0.0 0.0 0.00 0.00 0.00 41 1009.1
20260509041035 61 178 0.0 0.0 0.00 0.00 0.00 42 1009.1
20260509040538 61 175 0.0 0.0 0.00 0.00 0.00 42 1009.2
20260509040035 61 175 0.0 0.0 0.00 0.00 0.00 42 1009.2
20260509035535 61 175 0.0 0.0 0.00 0.00 0.00 42 1009.2
20260509035036 61 173 0.0 0.0 0.00 0.00 0.00 43 1009.2
20260509034534 61 173 0.0 0.0 0.00 0.00 0.00 43 1009.2
20260509034033 61 167 0.0 0.0 0.00 0.00 0.00 43 1009.3
20260509033534 61 167 0.0 0.0 0.00 0.00 0.00 43 1009.3
20260509033034 60 175 0.0 0.0 0.00 0.00 0.00 43 1009.4
20260509032531 60 170 0.0 0.0 0.00 0.00 0.00 44 1009.4
20260509032031 60 173 0.0 0.0 0.00 0.00 0.00 44 1009.4
20260509031534 60 175 0.0 0.0 0.00 0.00 0.00 44 1009.5
20260509031031 60 175 0.0 0.0 0.00 0.00 0.00 44 1009.6
20260509030531 60 175 0.0 0.0 0.00 0.00 0.00 44 1009.6
20260509030036 60 175 0.0 0.0 0.00 0.00 0.00 44 1009.6
20260509025530 60 175 0.0 0.0 0.00 0.00 0.00 44 1009.7
20260509025030 60 175 0.0 0.0 0.00 0.00 0.00 44 1009.7
20260509024536 60 175 0.0 0.0 0.00 0.00 0.00 44 1009.7
20260509024029 60 174 0.0 0.0 0.00 0.00 0.00 45 1009.7
20260509023528 60 174 0.0 0.0 0.00 0.00 0.00 45 1009.7
20260509023032 60 174 0.0 0.0 0.00 0.00 0.00 44 1009.9
20260509022528 61 174 0.0 0.0 0.00 0.00 0.00 44 1009.9
20260509022028 61 174 0.0 0.0 0.00 0.00 0.00 44 1010.0
20260509021528 61 174 0.0 0.0 0.00 0.00 0.00 43 1010.0
20260509021027 61 180 0.0 0.0 0.00 0.00 0.00 43 1010.0
20260509020527 61 180 0.0 0.0 0.00 0.00 0.00 43 1010.0
20260509020027 61 196 0.0 0.0 0.00 0.00 0.00 43 1010.0
20260509015527 61 196 0.0 0.0 0.00 0.00 0.00 42 1010.0
20260509015027 61 196 0.0 0.0 0.00 0.00 0.00 43 1009.8
20260509014526 62 196 0.0 0.0 0.00 0.00 0.00 42 1009.8
20260509014025 62 196 0.0 0.0 0.00 0.00 0.00 41 1009.9
20260509013526 62 196 0.0 0.0 0.00 0.00 0.00 42 1009.8
20260509013034 62 196 0.0 0.0 0.00 0.00 0.00 41 1009.9
20260509012525 62 200 0.0 0.0 0.00 0.00 0.00 40 1010.0
20260509012025 63 201 0.0 0.0 0.00 0.00 0.00 40 1010.1
20260509011525 63 201 0.0 0.0 0.00 0.00 0.00 40 1010.0
20260509011027 63 200 0.0 0.0 0.00 0.00 0.00 40 1010.0
20260509010524 64 201 0.0 0.0 0.00 0.00 0.00 39 1009.9
20260509010027 64 201 0.0 0.0 0.00 0.00 0.00 38 1009.9
20260509005524 64 201 0.0 0.0 0.00 0.00 0.00 37 1009.9
20260509005023 65 201 0.0 0.0 0.00 0.00 0.00 37 1009.9
20260509004530 65 201 0.0 0.0 0.00 0.00 0.00 36 1010.0
20260509004023 65 212 0.0 0.0 0.00 0.00 0.00 36 1010.0
20260509003522 66 212 0.0 0.0 0.00 0.00 0.00 35 1010.0
20260509003022 66 214 0.0 0.0 0.00 0.00 0.00 35 1010.0
20260509002521 66 214 0.0 0.0 0.00 0.00 0.00 34 1010.1
20260509002026 66 214 0.0 0.0 0.00 0.00 0.00 33 1010.1
20260509001522 67 220 0.0 0.0 0.00 0.00 0.00 33 1010.2
20260509001021 67 223 0.0 0.0 0.00 0.00 0.00 32 1010.2
20260509000521 68 211 0.0 0.0 0.00 0.00 0.00 31 1010.2
20260509000021 68 214 0.0 0.0 0.00 0.00 0.00 31 1010.2
20260508235521 68 198 0.0 0.0 0.00 0.00 0.00 32 1010.2
20260508235020 68 198 0.0 0.0 0.00 0.00 0.00 31 1010.2
20260508234521 69 198 0.0 0.0 0.00 0.00 0.00 30 1010.2
20260508234020 69 198 0.0 0.0 0.00 0.00 0.00 31 1010.2
20260508233520 69 217 0.0 0.0 0.00 0.00 0.00 30 1010.1
20260508233020 69 214 0.0 0.0 0.00 0.00 0.00 30 1010.1
20260508232519 69 222 0.0 0.0 0.00 0.00 0.00 30 1010.1
20260508232018 69 183 0.0 0.0 0.00 0.00 0.00 30 1010.2
20260508231518 69 193 0.0 0.0 0.00 0.00 0.00 30 1010.3
20260508231017 69 186 0.0 0.0 0.00 0.00 0.00 29 1010.3
20260508230519 69 184 0.0 0.0 0.00 0.00 0.00 30 1010.4
20260508230016 69 207 0.0 0.0 0.00 0.00 0.00 29 1010.5
20260508225517 70 215 0.0 0.0 0.00 0.00 0.00 29 1010.5
20260508225017 70 200 0.0 0.0 0.00 0.00 0.00 29 1010.5
20260508224516 70 220 0.0 0.0 0.00 0.00 0.00 28 1010.5
20260508224017 70 227 0.0 0.0 0.00 0.00 0.00 28 1010.5
20260508223516 70 216 0.0 0.0 0.00 0.00 0.00 28 1010.6
20260508223023 70 205 0.0 0.0 0.00 0.00 0.00 29 1010.6
20260508222514 70 205 0.0 0.0 0.00 0.00 0.00 28 1010.6
20260508222014 70 232 0.0 0.0 0.00 0.00 0.00 29 1010.7
20260508221525 70 233 0.0 0.0 0.00 0.00 0.00 28 1010.6
20260508221014 70 227 0.0 0.0 0.00 0.00 0.00 27 1010.5
20260508220514 70 221 0.0 0.0 0.00 0.00 0.00 28 1010.5
20260508220023 70 201 0.0 0.0 0.00 0.00 0.00 28 1010.4
20260508215516 70 198 0.0 0.0 0.00 0.00 0.00 28 1010.4
20260508215012 70 246 0.0 0.0 0.00 0.00 0.00 28 1010.3
20260508214513 70 180 0.0 0.0 0.00 0.00 0.00 28 1010.4
20260508214013 70 198 0.0 7.0 0.00 0.00 0.00 27 1010.4
20260508213511 70 194 4.0 8.0 0.00 0.00 0.00 28 1010.4
20260508213017 70 181 0.0 0.0 0.00 0.00 0.00 27 1010.4
20260508212511 70 223 0.0 0.0 0.00 0.00 0.00 28 1010.5
20260508212017 70 210 0.0 0.0 0.00 0.00 0.00 28 1010.5
20260508211510 70 227 0.0 6.0 0.00 0.00 0.00 27 1010.6
20260508211012 71 211 0.0 7.0 0.00 0.00 0.00 30 1010.5
20260508210509 70 205 0.0 7.0 0.00 0.00 0.00 28 1010.6
20260508210009 70 219 5.0 16.0 0.00 0.00 0.00 27 1010.8
20260508205512 70 204 6.0 16.0 0.00 0.00 0.00 29 1010.9
20260508205009 70 228 5.0 9.0 0.00 0.00 0.00 29 1010.8
20260508204507 70 229 4.0 18.0 0.00 0.00 0.00 31 1011.0
20260508204005 70 215 9.0 18.0 0.00 0.00 0.00 29 1011.0
20260508203505 70 198 0.0 0.0 0.00 0.00 0.00 28 1011.1
20260508203010 70 235 0.0 1.0 0.00 0.00 0.00 28 1011.3
20260508202504 71 200 0.0 1.0 0.00 0.00 0.00 27 1011.3
20260508202003 71 169 0.0 1.0 0.00 0.00 0.00 28 1011.4
20260508201503 70 181 0.0 1.0 0.00 0.00 0.00 28 1011.5
20260508201002 71 184 0.0 0.0 0.00 0.00 0.00 28 1011.5
20260508200501 70 246 0.0 0.0 0.00 0.00 0.00 28 1011.8
20260508200001 70 186 0.0 0.0 0.00 0.00 0.00 29 1011.9
20260508195559 70 228 0.0 0.0 0.00 0.00 0.00 27 1012.0
20260508195059 71 202 0.0 0.0 0.00 0.00 0.00 30 1012.0
20260508194557 70 210 0.0 0.0 0.00 0.00 0.00 29 1012.0
20260508194055 70 197 0.0 0.0 0.00 0.00 0.00 29 1012.1
20260508193555 69 221 0.0 0.0 0.00 0.00 0.00 28 1012.2
20260508193057 69 244 0.0 0.0 0.00 0.00 0.00 27 1012.5
20260508192554 70 242 0.0 0.0 0.00 0.00 0.00 28 1012.5
20260508192054 70 209 0.0 0.0 0.00 0.00 0.00 27 1012.4
20260508191555 70 213 0.0 0.0 0.00 0.00 0.00 27 1012.6
20260508191052 69 196 0.0 0.0 0.00 0.00 0.00 28 1012.7
20260508190552 69 172 0.0 0.0 0.00 0.00 0.00 26 1012.8
20260508185552 69 239 0.0 0.0 0.00 0.00 0.00 28 1013.1
20260508185053 69 254 0.0 0.0 0.00 0.00 0.00 27 1013.0
20260508184551 70 250 0.0 0.0 0.00 0.00 0.00 28 1013.0
20260508184054 69 232 0.0 0.0 0.00 0.00 0.00 26 1013.0
20260508183550 69 254 0.0 0.0 0.00 0.00 0.00 26 1013.2
20260508183053 69 228 0.0 0.0 0.00 0.00 0.00 27 1013.0
20260508182549 68 223 0.0 0.0 0.00 0.00 0.00 25 1013.0
20260508182049 69 201 0.0 0.0 0.00 0.00 0.00 28 1013.0
20260508181609 69 244 0.0 7.0 0.00 0.00 0.00 27 1012.9
20260508181049 69 173 4.0 16.0 0.00 0.00 0.00 25 1012.9
20260508180549 69 161 1.0 16.0 0.00 0.00 0.00 29 1012.8
20260508180107 69 167 0.0 3.0 0.00 0.00 0.00 28 1012.8
20260508175548 69 205 0.0 0.0 0.00 0.00 0.00 27 1013.0
20260508175047 68 217 0.0 0.0 0.00 0.00 0.00 28 1013.1
20260508174546 68 204 0.0 0.0 0.00 0.00 0.00 27 1013.2
20260508174044 69 225 0.0 0.0 0.00 0.00 0.00 28 1013.4
20260508173544 68 191 0.0 1.0 0.00 0.00 0.00 27 1013.6
20260508173047 68 165 0.0 8.0 0.00 0.00 0.00 28 1013.6
20260508172541 67 243 3.0 15.0 0.00 0.00 0.00 28 1013.9
20260508172041 68 204 6.0 13.0 0.00 0.00 0.00 27 1013.9
20260508171541 68 178 0.0 1.0 0.00 0.00 0.00 29 1013.9
20260508171040 68 235 0.0 0.0 0.00 0.00 0.00 29 1014.0
20260508170540 68 203 0.0 0.0 0.00 0.00 0.00 30 1014.3
20260508170038 68 169 0.0 0.0 0.00 0.00 0.00 30 1014.3
20260508165536 67 216 0.0 0.0 0.00 0.00 0.00 29 1014.5
20260508165035 67 238 0.0 0.0 0.00 0.00 0.00 28 1014.6
20260508164540 67 225 0.0 0.0 0.00 0.00 0.00 28 1014.6
20260508164033 67 245 0.0 0.0 0.00 0.00 0.00 31 1014.8
20260508163532 67 228 0.0 0.0 0.00 0.00 0.00 28 1015.1
20260508163031 67 219 0.0 0.0 0.00 0.00 0.00 30 1015.1
20260508162532 67 246 0.0 0.0 0.00 0.00 0.00 32 1015.2
20260508162032 66 248 0.0 0.0 0.00 0.00 0.00 33 1015.2
20260508161535 66 240 0.0 0.0 0.00 0.00 0.00 29 1015.2
20260508161030 66 236 0.0 0.0 0.00 0.00 0.00 30 1015.3
20260508160528 66 212 0.0 0.0 0.00 0.00 0.00 30 1015.4
20260508160036 67 186 0.0 0.0 0.00 0.00 0.00 32 1015.6
20260508155526 66 229 0.0 0.0 0.00 0.00 0.00 31 1015.6
20260508155026 66 248 0.0 0.0 0.00 0.00 0.00 32 1015.7
20260508154526 66 229 0.0 1.0 0.00 0.00 0.00 33 1015.7
20260508154025 66 209 0.0 1.0 0.00 0.00 0.00 32 1015.7
20260508153526 65 236 0.0 0.0 0.00 0.00 0.00 31 1015.7
20260508153024 65 217 0.0 0.0 0.00 0.00 0.00 32 1015.8
20260508152523 65 235 0.0 0.0 0.00 0.00 0.00 31 1015.9
20260508152026 65 191 0.0 0.0 0.00 0.00 0.00 36 1016.0
20260508151525 65 234 0.0 0.0 0.00 0.00 0.00 30 1016.0
20260508151023 65 242 0.0 0.0 0.00 0.00 0.00 35 1016.0
20260508150525 64 236 0.0 0.0 0.00 0.00 0.00 32 1016.1
20260508150023 64 261 0.0 0.0 0.00 0.00 0.00 32 1016.1
20260508145523 64 271 0.0 0.0 0.00 0.00 0.00 34 1016.2
20260508145021 64 242 0.0 0.0 0.00 0.00 0.00 34 1016.2
20260508144519 63 225 0.0 0.0 0.00 0.00 0.00 34 1016.3
20260508144019 63 226 0.0 0.0 0.00 0.00 0.00 36 1016.3
20260508143518 63 216 0.0 0.0 0.00 0.00 0.00 37 1016.3
20260508143017 62 196 0.0 0.0 0.00 0.00 0.00 38 1016.3
20260508142516 62 228 0.0 0.0 0.00 0.00 0.00 36 1016.4
20260508142016 62 233 0.0 0.0 0.00 0.00 0.00 38 1016.4
20260508141515 62 229 0.0 0.0 0.00 0.00 0.00 39 1016.5
20260508141013 61 207 0.0 0.0 0.00 0.00 0.00 39 1016.4
20260508140512 61 241 0.0 0.0 0.00 0.00 0.00 39 1016.5
20260508140011 60 233 0.0 0.0 0.00 0.00 0.00 40 1016.5
20260508135511 60 242 0.0 0.0 0.00 0.00 0.00 40 1016.5
20260508135010 60 237 0.0 0.0 0.00 0.00 0.00 39 1016.4
20260508134512 60 229 0.0 0.0 0.00 0.00 0.00 39 1016.4
20260508134008 59 227 0.0 0.0 0.00 0.00 0.00 38 1016.4
20260508133508 59 232 0.0 0.0 0.00 0.00 0.00 40 1016.4
20260508133006 59 244 0.0 0.0 0.00 0.00 0.00 42 1016.5
20260508132507 59 244 0.0 0.0 0.00 0.00 0.00 43 1016.5
20260508132004 58 213 0.0 0.0 0.00 0.00 0.00 45 1016.5
20260508131503 57 169 0.0 0.0 0.00 0.00 0.00 47 1016.4
20260508131001 56 183 0.0 0.0 0.00 0.00 0.00 47 1016.4
20260508130604 56 192 0.0 0.0 0.00 0.00 0.00 46 1016.3
20260508130059 55 188 0.0 0.0 0.00 0.00 0.00 47 1016.2
20260508125557 54 194 0.0 0.0 0.00 0.00 0.00 48 1016.2
20260508125056 54 186 0.0 0.0 0.00 0.00 0.00 50 1016.2
20260508124555 53 187 0.0 0.0 0.00 0.00 0.00 50 1016.2
20260508124053 52 188 0.0 0.0 0.00 0.00 0.00 50 1016.2
20260508123551 52 181 0.0 0.0 0.00 0.00 0.00 51 1016.2
20260508123051 51 194 0.0 0.0 0.00 0.00 0.00 52 1016.2
20260508122548 51 193 0.0 0.0 0.00 0.00 0.00 52 1016.3
20260508122048 50 180 0.0 0.0 0.00 0.00 0.00 53 1016.4
20260508121550 49 180 0.0 0.0 0.00 0.00 0.00 53 1016.4
20260508121044 49 178 0.0 0.0 0.00 0.00 0.00 53 1016.4
20260508120543 48 181 0.0 0.0 0.00 0.00 0.00 53 1016.4
20260508120052 48 183 0.0 0.0 0.00 0.00 0.00 54 1016.4
20260508115542 47 182 0.0 0.0 0.00 0.00 0.00 54 1016.3
20260508115039 46 178 0.0 1.0 0.00 0.00 0.00 54 1016.3
20260508114538 46 186 0.0 0.0 0.00 0.00 0.00 54 1016.3
20260508114037 45 182 0.0 0.0 0.00 0.00 0.00 54 1016.3
20260508113536 45 184 0.0 0.0 0.00 0.00 0.00 54 1016.3
20260508113035 45 191 0.0 0.0 0.00 0.00 0.00 54 1016.2
20260508112535 45 192 0.0 0.0 0.00 0.00 0.00 54 1016.2
20260508112034 44 193 0.0 0.0 0.00 0.00 0.00 55 1016.1
20260508111550 44 192 0.0 0.0 0.00 0.00 0.00 55 1016.1
20260508111034 44 192 0.0 0.0 0.00 0.00 0.00 55 1016.1
20260508110536 44 188 0.0 0.0 0.00 0.00 0.00 55 1016.0
20260508110039 43 188 0.0 0.0 0.00 0.00 0.00 55 1015.9
20260508105536 43 188 0.0 0.0 0.00 0.00 0.00 55 1015.8
20260508105034 43 189 0.0 0.0 0.00 0.00 0.00 55 1015.7
20260508104533 43 190 0.0 0.0 0.00 0.00 0.00 56 1015.7
20260508104032 43 190 0.0 0.0 0.00 0.00 0.00 56 1015.7
20260508103532 43 180 0.0 0.0 0.00 0.00 0.00 56 1015.7
20260508103039 43 178 0.0 0.0 0.00 0.00 0.00 56 1015.7
20260508102531 43 179 0.0 0.0 0.00 0.00 0.00 55 1015.6
20260508102031 44 187 0.0 0.0 0.00 0.00 0.00 55 1015.6
20260508101540 44 184 0.0 0.0 0.00 0.00 0.00 55 1015.6
20260508101033 43 184 0.0 0.0 0.00 0.00 0.00 56 1015.6
20260508100531 43 181 0.0 0.0 0.00 0.00 0.00 57 1015.6
20260508100030 42 175 0.0 0.0 0.00 0.00 0.00 57 1015.6
20260508095531 42 172 0.0 0.0 0.00 0.00 0.00 57 1015.5
20260508095029 42 173 0.0 0.0 0.00 0.00 0.00 57 1015.6
20260508094529 42 181 0.0 0.0 0.00 0.00 0.00 57 1015.7
20260508094031 43 182 0.0 0.0 0.00 0.00 0.00 57 1015.7
20260508093529 43 181 0.0 0.0 0.00 0.00 0.00 57 1015.7
20260508093028 42 180 0.0 0.0 0.00 0.00 0.00 57 1015.8
20260508092527 43 178 0.0 0.0 0.00 0.00 0.00 57 1015.7
20260508092027 43 177 0.0 0.0 0.00 0.00 0.00 57 1015.7
20260508091527 43 184 0.0 0.0 0.00 0.00 0.00 56 1015.7
20260508091027 43 187 0.0 0.0 0.00 0.00 0.00 56 1015.7
20260508090527 43 196 0.0 0.0 0.00 0.00 0.00 56 1015.7
20260508090032 43 197 0.0 0.0 0.00 0.00 0.00 57 1015.8
20260508085526 42 189 0.0 0.0 0.00 0.00 0.00 58 1015.7
20260508085026 42 180 0.0 0.0 0.00 0.00 0.00 58 1015.8
20260508084525 42 181 0.0 0.0 0.00 0.00 0.00 58 1015.8
20260508084025 42 184 0.0 0.0 0.00 0.00 0.00 59 1015.8
20260508083524 42 188 0.0 0.0 0.00 0.00 0.00 60 1015.8
20260508083025 41 187 0.0 0.0 0.00 0.00 0.00 61 1015.8
20260508082524 41 178 0.0 0.0 0.00 0.00 0.00 61 1015.8
20260508082026 41 178 0.0 0.0 0.00 0.00 0.00 61 1015.8
20260508081525 41 189 0.0 0.0 0.00 0.00 0.00 61 1015.8
20260508081023 41 194 0.0 0.0 0.00 0.00 0.00 62 1015.8
20260508080526 41 202 0.0 0.0 0.00 0.00 0.00 62 1015.8
20260508080024 41 208 0.0 0.0 0.00 0.00 0.00 62 1015.8
20260508075524 41 208 0.0 0.0 0.00 0.00 0.00 62 1015.8
20260508075023 41 208 0.0 0.0 0.00 0.00 0.00 62 1015.8
20260508074524 41 208 0.0 0.0 0.00 0.00 0.00 62 1015.8
20260508074022 41 208 0.0 0.0 0.00 0.00 0.00 62 1015.7
20260508073522 41 208 0.0 0.0 0.00 0.00 0.00 62 1015.7
20260508073028 41 209 0.0 0.0 0.00 0.00 0.00 62 1015.7
20260508072521 41 209 0.0 0.0 0.00 0.00 0.00 62 1015.8
20260508072021 41 209 0.0 0.0 0.00 0.00 0.00 62 1015.8
20260508071527 41 209 0.0 0.0 0.00 0.00 0.00 62 1015.9
20260508071022 41 209 0.0 0.0 0.00 0.00 0.00 62 1015.8
20260508070520 41 213 0.0 0.0 0.00 0.00 0.00 62 1015.8
20260508070021 41 213 0.0 0.0 0.00 0.00 0.00 62 1015.8
20260508065522 41 213 0.0 0.0 0.00 0.00 0.00 62 1015.9
20260508065019 41 213 0.0 0.0 0.00 0.00 0.00 63 1015.9
20260508064532 41 212 0.0 0.0 0.00 0.00 0.00 62 1015.9
20260508064019 41 213 0.0 0.0 0.00 0.00 0.00 63 1016.0
20260508063517 41 212 0.0 0.0 0.00 0.00 0.00 63 1016.0
20260508063022 41 213 0.0 0.0 0.00 0.00 0.00 63 1016.1